Station MRCP1 - 8540433 - Marcus Hook, PA Image indicating link to RSS feed of recent meteorological observations for station MRCP1


Conditions at MRCP1 as of
(2:00 pm EDT)
1800 GMT on 04/15/2024:
     

Click on the graph icon in the table below to see a time series plot of the last five days of that observation.

5-day plot - Atmospheric Pressure Atmospheric Pressure (PRES):29.80 in
5-day plot - Pressure Tendency Pressure Tendency (PTDY):-0.04 in ( Falling )
5-day plot - Air Temperature Air Temperature (ATMP): 76.1 °F
5-day plot - Water Temperature Water Temperature (WTMP): 56.1 °F
NOS Water Level Observation Network Water Level
Previous observations
TIME
(EDT)
5-day plot - Wind Direction
WDIR
 
5-day plot - Wind Speed
WSPD
kts
5-day plot - Wind Gust
GST
kts
5-day plot - Wave Height
WVHT
ft
5-day plot - Dominant Wave Period
DPD
sec
5-day plot - Average Wave Period
APD
sec
5-day plot - Mean Wave Direction
MWD
 
5-day plot - Atmospheric Pressure
PRES
in
5-day plot - Pressure Tendency
PTDY
in
5-day plot - Air Temperature
ATMP
°F
5-day plot - Water Temperature
WTMP
°F
5-day plot - Dew Point
DEWP
°F
5-day plot - Salinity
SAL
psu
5-day plot - Visibility
VIS
nmi
5-day plot - Tide (above MLLW)
TIDE
ft
2024-04-15 01:54 pm-------29.80- 75.2 56.3----
2024-04-15 01:48 pm-------29.81- 76.3 56.5----
2024-04-15 01:42 pm-------29.81- 75.0 56.3----
2024-04-15 01:36 pm-------29.81- 74.5 55.6----
2024-04-15 01:30 pm-------29.81- 74.8 55.6----
2024-04-15 01:24 pm-------29.81- 75.4 55.6----
2024-04-15 01:18 pm-------29.81- 74.7 55.6----
2024-04-15 01:12 pm-------29.81- 73.8 55.2----
2024-04-15 01:06 pm-------29.82- 69.6 55.0----
2024-04-15 01:00 pm-------29.82-0.03 69.3 55.4----
2024-04-15 12:54 pm-------29.82- 70.2 55.8----
2024-04-15 12:48 pm-------29.82- 70.2 55.0----
2024-04-15 12:42 pm-------29.82- 70.0 55.0----
2024-04-15 12:36 pm-------29.83- 68.9 55.0----
2024-04-15 12:30 pm-------29.83- 68.7 54.9----
2024-04-15 12:24 pm-------29.83- 68.5 54.9----
2024-04-15 12:18 pm-------29.83- 66.9 54.9----
2024-04-15 12:12 pm-------29.83- 65.8 54.9----
2024-04-15 12:06 pm-------29.83- 67.1 55.2----
2024-04-15 12:00 pm-------29.83-0.01 69.1 54.9----
2024-04-15 11:54 am-------29.84- 68.4 54.7----
2024-04-15 11:48 am-------29.84- 69.6 54.9----
2024-04-15 11:42 am-------29.84- 71.1 54.9----
2024-04-15 11:36 am-------29.84- 71.4 54.9----
2024-04-15 11:30 am-------29.84- 71.6 55.2----
2024-04-15 11:24 am-------29.85- 70.7 55.6----
2024-04-15 11:18 am-------29.85- 70.2 55.6----
2024-04-15 11:12 am-------29.85- 68.5 54.9----
2024-04-15 11:06 am-------29.85- 67.3 55.0----
2024-04-15 11:00 am-------29.85+0.02 66.0 55.0----
2024-04-15 10:54 am-------29.85- 66.4 54.7----
2024-04-15 10:48 am-------29.85- 66.0 54.3----
2024-04-15 10:42 am-------29.85- 65.7 54.3----
2024-04-15 10:36 am-------29.85- 65.5 54.3----
2024-04-15 10:30 am-------29.85-- 54.7----
2024-04-15 10:24 am-------29.85-- 54.9----
2024-04-15 10:18 am-------29.85- 66.7 55.6----
2024-04-15 10:12 am-------29.85- 65.1 54.9----
2024-04-15 10:06 am-------29.85- 64.9 54.5----
2024-04-15 10:00 am-------29.85+0.06 65.3 54.7----
2024-04-15 09:54 am-------29.85- 67.3 54.9----
2024-04-15 09:48 am-------29.84- 71.6 55.9----
2024-04-15 09:42 am-------29.84- 70.9 56.1----
2024-04-15 09:36 am-------29.84- 70.5 55.4----
2024-04-15 09:30 am-------29.84- 70.5 55.8----
2024-04-15 09:24 am-------29.84- 70.2 55.2----
2024-04-15 09:18 am-------29.85- 70.2 55.0----
2024-04-15 09:12 am-------29.84- 69.6 55.0----
2024-04-15 09:06 am-------29.85- 69.3 55.0----
2024-04-15 09:00 am-------29.84+0.09 68.7 55.0----
2024-04-15 08:54 am-------29.84- 68.7 55.0----
2024-04-15 08:48 am-------29.84- 68.2 55.2----
2024-04-15 08:42 am-------29.84- 68.4 55.4----
2024-04-15 08:36 am-------29.84- 68.5 55.4----
2024-04-15 08:30 am-------29.84- 67.6 55.2----
2024-04-15 08:24 am-------29.84- 66.6 55.0----
2024-04-15 08:18 am-------29.84- 65.8 54.7----
2024-04-15 08:12 am-------29.83- 63.9 54.3----
2024-04-15 08:06 am-------29.83- 62.6 54.3----
2024-04-15 08:00 am-------29.83+0.09 62.1 54.1----
2024-04-15 07:54 am-------29.83- 63.1 54.0----
2024-04-15 07:48 am-------29.82- 66.4 54.0----
2024-04-15 07:42 am-------29.82- 65.8 54.0----
2024-04-15 07:36 am-------29.81- 63.0 54.0----
2024-04-15 07:30 am-------29.81- 60.6 54.0----
2024-04-15 07:24 am-------29.80- 59.4 54.0----
2024-04-15 07:18 am-------29.80- 60.3 54.0----
2024-04-15 07:12 am-------29.80- 59.2 54.0----
2024-04-15 07:06 am-------29.79- 59.0 54.0----
2024-04-15 07:00 am-------29.78+0.04 59.2 53.8----
2024-04-15 06:54 am-------29.78- 58.6 53.8----
2024-04-15 06:48 am-------29.77- 58.3 53.8----
2024-04-15 06:42 am-------29.77- 58.5 54.0----
2024-04-15 06:36 am-------29.76- 59.2 53.8----
2024-04-15 06:30 am-------29.77- 59.2 54.0----
2024-04-15 06:24 am-------29.77- 59.7 54.0----
2024-04-15 06:18 am-------29.76- 60.4 54.0----
2024-04-15 06:12 am-------29.76- 60.8 54.0----
2024-04-15 06:06 am-------29.75- 60.3 54.0----
2024-04-15 06:00 am-------29.75+0.01 59.7 54.0----
2024-04-15 05:54 am-------29.75- 59.5 54.0----
2024-04-15 05:48 am-------29.75- 59.4 54.0----
2024-04-15 05:42 am-------29.74- 58.6 54.0----
2024-04-15 05:36 am-------29.74- 59.9 54.0----
2024-04-15 05:30 am-------29.74- 59.7 54.0----
2024-04-15 05:24 am-------29.74- 60.6 54.0----
2024-04-15 05:18 am-------29.74- 61.0 54.0----
2024-04-15 05:12 am-------29.74- 60.8 54.0----
2024-04-15 05:06 am-------29.74- 61.0 54.0----
2024-04-15 05:00 am-------29.74-0.02 61.2 54.0----
2024-04-15 04:54 am-------29.74- 61.2 54.0----
2024-04-15 04:48 am-------29.74- 61.0 54.0----
2024-04-15 04:42 am-------29.74- 60.4 54.0----
2024-04-15 04:36 am-------29.74- 59.9 54.0----
2024-04-15 04:30 am-------29.74- 59.0 54.0----
2024-04-15 04:24 am-------29.74- 59.0 54.0----
2024-04-15 04:18 am-------29.74- 58.8 54.1----
2024-04-15 04:12 am-------29.74- 59.5 54.1----
2024-04-15 04:06 am-------29.74- 59.5 54.0----
2024-04-15 04:00 am-------29.74-0.04 59.2 54.1----
2024-04-15 03:54 am-------29.74- 60.1 54.1----
2024-04-15 03:48 am-------29.74- 61.9 54.1----
2024-04-15 03:42 am-------29.74- 61.2 54.1----
2024-04-15 03:36 am-------29.74- 60.8 54.1----
2024-04-15 03:30 am-------29.74- 61.3 54.1----
2024-04-15 03:24 am-------29.74- 60.1 54.1----
2024-04-15 03:18 am-------29.73- 59.2 54.1----
2024-04-15 03:12 am-------29.73- 59.4 54.3----
2024-04-15 03:06 am-------29.74- 59.0 54.3----
2024-04-15 03:00 am-------29.74-0.03 59.2 54.3----
2024-04-15 02:54 am-------29.74- 59.5 54.3----
2024-04-15 02:48 am-------29.75- 59.9 54.3----
2024-04-15 02:42 am-------29.74- 60.1 54.3----
2024-04-15 02:36 am-------29.74- 60.3 54.1----
2024-04-15 02:30 am-------29.75- 60.3 54.1----
2024-04-15 02:24 am-------29.75- 61.2 54.1----
2024-04-15 02:18 am-------29.76- 59.7 54.1----
2024-04-15 02:12 am-------29.76- 60.1 54.1----
2024-04-15 02:06 am-------29.76- 60.3 54.1----
2024-04-15 02:00 am-------29.76+0.00 60.8 54.1----
2024-04-15 01:54 am-------29.76- 61.2 54.1----
2024-04-15 01:48 am-------29.77- 62.6 54.1----
2024-04-15 01:42 am-------29.77- 63.5 54.1----
2024-04-15 01:36 am-------29.78- 64.2 54.1----
2024-04-15 01:30 am-------29.78- 65.3 54.1----
2024-04-15 01:24 am-------29.79- 66.2 54.1----
2024-04-15 01:18 am-------29.78- 66.2 54.1----
2024-04-15 01:12 am-------29.77- 66.4 54.1----
2024-04-15 01:06 am-------29.78- 66.7 54.1----
2024-04-15 01:00 am-------29.78-0.04 67.3 54.1----
2024-04-15 12:54 am-------29.78- 66.9 54.1----
2024-04-15 12:48 am-------29.80- 66.7 54.1----
2024-04-15 12:42 am-------29.80- 65.8 54.1----
2024-04-15 12:36 am-------29.79- 64.9 54.0----
2024-04-15 12:30 am-------29.79- 64.8 54.0----
2024-04-15 12:24 am-------29.79- 64.6 54.1----
2024-04-15 12:18 am-------29.79- 63.9 54.0----
2024-04-15 12:12 am-------29.79- 64.0 54.0----
2024-04-15 12:06 am-------29.78- 64.0 54.0----
2024-04-15 12:00 am-------29.77+0.07 63.9 54.0----
2024-04-14 11:54 pm-------29.77- 63.1 54.0----
2024-04-14 11:48 pm-------29.77- 63.3 54.0----
2024-04-14 11:42 pm-------29.77- 63.3 54.0----
2024-04-14 11:36 pm-------29.77- 63.1 54.0----
2024-04-14 11:30 pm-------29.77- 61.3 54.0----
2024-04-14 11:24 pm-------29.77- 61.7 54.0----
2024-04-14 11:18 pm-------29.76- 61.2 54.1----
2024-04-14 11:12 pm-------29.76- 60.8 54.3----
2024-04-14 11:06 pm-------29.76- 60.8 54.3----
2024-04-14 11:00 pm-------29.76+0.12 62.4 54.3----
2024-04-14 10:54 pm-------29.77- 64.0 54.3----
2024-04-14 10:48 pm-------29.77- 64.2 54.5----
2024-04-14 10:42 pm-------29.78- 66.0 54.3----
2024-04-14 10:36 pm-------29.78- 66.0 54.3----
2024-04-14 10:30 pm-------29.78- 66.0 54.1----
2024-04-14 10:24 pm-------29.79- 66.0 54.1----
2024-04-14 10:18 pm-------29.80- 66.6 54.3----
2024-04-14 10:12 pm-------29.80- 66.9 54.7----
2024-04-14 10:06 pm-------29.80- 67.6 54.9----
2024-04-14 10:00 pm-------29.82+0.18 67.8 55.4----
2024-04-14 09:54 pm-------29.82- 69.1 54.7----
2024-04-14 09:48 pm-------29.81- 71.4 55.0----
2024-04-14 09:42 pm-------29.80- 71.8 55.0----
2024-04-14 09:36 pm-------29.79- 72.0 55.8----
2024-04-14 09:30 pm-------29.79- 68.2 55.2----
2024-04-14 09:24 pm-------29.72- 65.5 55.2----
2024-04-14 09:18 pm-------29.71- 63.5 54.7----
2024-04-14 09:12 pm-------29.71- 63.1 55.4----
2024-04-14 09:06 pm-------29.70- 66.9 55.8----
2024-04-14 09:00 pm-------29.70+0.04 66.9 56.1----
2024-04-14 08:54 pm-------29.69- 66.9 55.8----
2024-04-14 08:48 pm-------29.69-- 56.1----
2024-04-14 08:42 pm-------29.68-- 56.1----
2024-04-14 08:36 pm-------29.68-- 55.8----
2024-04-14 08:30 pm-------29.67- 65.7 55.4----
2024-04-14 08:24 pm-------29.67- 67.3 54.7----
2024-04-14 08:18 pm--------- 67.8 54.5----
2024-04-14 08:12 pm--------- 67.3 54.1----
2024-04-14 08:06 pm--------- 66.9 54.1----
2024-04-14 08:00 pm-------29.65-0.04 66.6 54.1----
2024-04-14 07:54 pm-------29.64- 67.8 54.1----
2024-04-14 07:48 pm-------29.63- 66.6 54.1----
2024-04-14 07:42 pm-------29.63- 67.3 54.1----
2024-04-14 07:36 pm-------29.62- 67.8 54.3----
2024-04-14 07:30 pm-------29.62- 67.5 54.5----
2024-04-14 07:24 pm-------29.62- 66.7 54.5----
2024-04-14 07:00 pm-------29.64-0.07- 54.5----
2024-04-14 06:54 pm-------29.64-- 54.5----
2024-04-14 06:48 pm-------29.64- 69.6 54.5----
2024-04-14 06:42 pm-------29.65- 68.7 54.5----
2024-04-14 06:36 pm-------29.65- 69.3 54.5----
2024-04-14 06:30 pm-------29.65- 68.7 54.5----
2024-04-14 06:24 pm-------29.65- 69.4 54.5----
2024-04-14 06:18 pm-------29.66- 68.9 54.5----
2024-04-14 06:12 pm-------29.66- 69.4 54.5----
2024-04-14 06:06 pm-------29.66- 69.3 54.5----
2024-04-14 06:00 pm-------29.66-0.10 70.0 54.5----
2024-04-14 05:54 pm-------29.67- 68.7 54.3----
2024-04-14 05:48 pm-------29.67-- 54.3----
2024-04-14 05:42 pm-------29.67-- 54.3----
2024-04-14 05:36 pm-------29.67-- 54.3----
2024-04-14 05:30 pm-------29.67-- 54.3----
2024-04-14 05:24 pm-------29.68-- 54.3----
2024-04-14 05:18 pm-------29.68- 69.8 54.3----
2024-04-14 05:12 pm-------29.68- 70.2 54.3----
2024-04-14 05:06 pm-------29.68- 69.8 54.3----
2024-04-14 05:00 pm-------29.68-0.12 69.4 54.3----
2024-04-14 04:54 pm-------29.68- 68.2 54.3----
2024-04-14 04:48 pm-------29.69- 68.9 54.3----
2024-04-14 04:42 pm-------29.69- 68.9 54.3----
2024-04-14 04:36 pm-------29.69- 69.1 54.3----
2024-04-14 04:30 pm-------29.69- 68.7 54.3----
2024-04-14 04:24 pm-------29.70- 68.7 54.5----
2024-04-14 04:18 pm-------29.70- 68.7 54.5----
2024-04-14 04:12 pm-------29.70- 68.4 54.5----
2024-04-14 04:06 pm-------29.71- 67.8 54.5----
2024-04-14 04:00 pm-------29.71-0.14 68.4 54.5----
2024-04-14 03:54 pm-------29.71- 68.4 54.5----
2024-04-14 03:48 pm-------29.72- 68.9 54.5----
2024-04-14 03:42 pm-------29.72- 68.0 54.5----
2024-04-14 03:36 pm-------29.72- 68.4 54.5----
2024-04-14 03:30 pm-------29.73- 68.5 54.5----
2024-04-14 03:24 pm-------29.74- 68.5 54.7----
2024-04-14 03:18 pm-------29.74- 68.5 54.7----
2024-04-14 03:12 pm-------29.74- 67.8 54.7----
2024-04-14 03:06 pm-------29.75- 67.8 54.7----
2024-04-14 03:00 pm-------29.76-0.14------
2024-04-14 02:54 pm-------29.77-------
2024-04-14 02:48 pm-------29.77- 67.6 54.9----
2024-04-14 02:42 pm-------29.78- 67.5 54.7----
2024-04-14 02:36 pm-------29.78- 67.5 54.7----
2024-04-14 02:30 pm-------29.78- 67.5 54.9----
2024-04-14 02:24 pm-------29.78- 67.1 55.0----
2024-04-14 02:18 pm-------29.79- 67.3 55.2----
2024-04-14 02:12 pm-------29.79- 66.4 55.2----
2024-04-14 02:06 pm-------29.79- 66.2 55.2----
2024-04-14 02:00 pm-------29.80-0.14 68.0 55.0----
2024-04-14 01:54 pm-------29.81- 67.5 54.7----